Weather History for KDLS - July, 2013

Change the Weather History Date:

Saturday, July 20, 2013

  Actual Average Record
Temperature  
Mean Temperature 76 °F -  
Max Temperature 89 °F 90 °F 106 °F (1985)
Min Temperature 64 °F 61 °F 51 °F (1950)
Cooling Degree Days 10    
Growing Degree Days 26 (Base 50)    
Moisture  
Dew Point 56 °F    
Average Humidity 51    
Maximum Humidity 73    
Minimum Humidity 32    
Precipitation  
Precipitation 0.00 in - - ()
Sea Level Pressure  
Sea Level Pressure 29.87 in    
Wind  
Wind Speed 18 mph (NW)    
Max Wind Speed 25 mph    
Max Gust Speed 32 mph    
Visibility 10 miles    
Events      
Averages and records for this station are not official NWS values.
T = Trace of Precipitation, MM = Missing Value Source: NWS Daily Summary

Daily Weather History Graph

Daily Weather History Graph

Search for Another Location

Airport or City:

Trip Planner

Search our weather history database for the weather conditions in past years. The results will help you decide how hot, cold, wet, or windy it might be!

Date:

Astronomy

Jul. 20, 2013 Rise Set
Actual Time 5:35 AM PDT 8:46 PM PDT
Civil Twilight 4:59 AM PDT 9:21 PM PDT
Nautical Twilight 4:12 AM PDT 10:08 PM PDT
Astronomical Twilight 3:15 AM PDT 11:04 PM PDT
Moon 6:53 PM PDT (7/20) 3:21 AM PDT (7/20)
Length of Visible Light 16h 22m
Length of Day
15h 10m
Waxing Gibbous, 94% of the Moon is Illuminated
Jul 20
Waxing Gibbous
Jul 22
Full
Jul 29
Last Quarter
Aug 6
New
Aug 14
First Quarter

Hourly Weather History & Observations

Time (PDT) Temp. Heat Index Dew Point Humidity Pressure Visibility Wind Dir Wind Speed Gust Speed Precip Events Conditions
12:53 AM 73.0 °F - 59.0 °F 61% 29.91 in 10.0 mi NNW 20.7 mph 29.9 mph N/A   Clear
1:53 AM 71.1 °F - 57.9 °F 63% 29.91 in 10.0 mi NNW 21.9 mph 28.8 mph N/A   Clear
2:53 AM 69.1 °F - 57.9 °F 68% 29.92 in 10.0 mi NNW 20.7 mph 26.5 mph N/A   Clear
3:53 AM 68.0 °F - 57.9 °F 70% 29.92 in 10.0 mi NW 17.3 mph 25.3 mph N/A   Clear
4:53 AM 66.0 °F - 57.0 °F 73% 29.93 in 10.0 mi NW 16.1 mph 24.2 mph N/A   Clear
5:53 AM 64.9 °F - 55.0 °F 70% 29.94 in 10.0 mi NW 8.1 mph - N/A   Clear
6:53 AM 64.9 °F - 54.0 °F 68% 29.94 in 10.0 mi WNW 4.6 mph - N/A   Clear
7:53 AM 69.1 °F - 57.0 °F 65% 29.95 in 10.0 mi WNW 12.7 mph 20.7 mph N/A   Clear
8:53 AM 72.0 °F - 55.9 °F 57% 29.94 in 10.0 mi NW 16.1 mph 27.6 mph N/A   Clear
9:53 AM 75.9 °F - 55.9 °F 50% 29.94 in 10.0 mi NNW 16.1 mph 24.2 mph N/A   Clear
10:53 AM 78.1 °F - 55.0 °F 45% 29.91 in 10.0 mi NNW 17.3 mph 24.2 mph N/A   Clear
11:53 AM 81.0 °F 80.5 °F 54.0 °F 39% 29.89 in 10.0 mi NW 20.7 mph 26.5 mph N/A   Clear
12:53 PM 82.9 °F 81.9 °F 54.0 °F 37% 29.87 in 10.0 mi NNW 20.7 mph 31.1 mph N/A   Clear
1:53 PM 84.9 °F 83.3 °F 54.0 °F 34% 29.84 in 10.0 mi NNW 21.9 mph 31.1 mph N/A   Clear
2:53 PM 87.1 °F 85.1 °F 54.0 °F 32% 29.83 in 10.0 mi NNW 24.2 mph 32.2 mph N/A   Clear
3:53 PM 87.1 °F 85.3 °F 55.0 °F 33% 29.81 in 10.0 mi NNW 20.7 mph 29.9 mph N/A   Clear
4:53 PM 87.1 °F 85.3 °F 55.0 °F 33% 29.79 in 10.0 mi NNW 20.7 mph 27.6 mph N/A   Clear
5:53 PM 84.0 °F 83.3 °F 57.0 °F 40% 29.77 in 10.0 mi NNW 25.3 mph 32.2 mph N/A   Clear
6:53 PM 84.9 °F 83.9 °F 57.0 °F 38% 29.78 in 10.0 mi NW 17.3 mph 25.3 mph N/A   Clear
7:53 PM 82.0 °F 81.7 °F 57.0 °F 42% 29.78 in 10.0 mi NW 17.3 mph 25.3 mph N/A   Clear
8:53 PM 78.1 °F - 57.0 °F 48% 29.80 in 10.0 mi NW 18.4 mph - N/A   Clear
9:53 PM 77.0 °F - 57.0 °F 50% 29.82 in 10.0 mi NW 15.0 mph 23.0 mph N/A   Clear
10:53 PM 75.0 °F - 57.0 °F 53% 29.81 in 10.0 mi NW 19.6 mph 25.3 mph N/A   Clear
11:53 PM 73.9 °F - 55.9 °F 53% 29.82 in 10.0 mi NW 10.4 mph 20.7 mph N/A   Clear